Hourly Data Report for July 08, 2021

VINELAND STATION RCS
ONTARIO
Current Station Operator: ECCC - MSC

43°11'00.000" N
79°24'00.000" W
79.20 m
6139148
71171
XVN

Download Data

Hourly Data (July 2021)
Hourly Data Report for July 8, 2021
TIME
LST
Temp Definition
°C
Dew Point Definition
°C
Rel Hum Definition
%
Precip. Amount Definition
mm

Wind Dir Definition
10's deg

Wind Spd Definition
km/h
Visibility Definition
km
Stn Press Definition
kPa
Hmdx Definition


Wind Chill Definition


Weather Definition


00:00 17.1 15.7 91 LegendMM 6 10   100.38     LegendNANA
01:00 17.3 16.0 92 LegendMM 7 12   100.34     LegendNANA
02:00 17.2 15.7 91 LegendMM 10 7   100.35     LegendNANA
03:00 17.1 15.9 92 LegendMM 7 6   100.33     LegendNANA
04:00 17.3 16.1 93 LegendMM 7 7   100.29     LegendNANA
05:00 17.2 16.3 94 LegendMM 7 8   100.26     LegendNANA
06:00 17.2 16.1 93 LegendMM 7 10   100.26     LegendNANA
07:00 17.2 16.3 94 LegendMM 6 8   100.24     LegendNANA
08:00 17.5 16.5 94 LegendMM 8 6   100.23     LegendNANA
09:00 18.2 17.0 93 LegendMM 5 5   100.18     LegendNANA
10:00 18.1 17.1 94 LegendMM 5 6   100.14     LegendNANA
11:00 18.5 17.3 93 LegendMM 2 4   100.15     LegendNANA
12:00 17.7 17.0 96 LegendMM 4 7   100.09     LegendNANA
13:00 19.7 17.7 88 LegendMM 3 5   100.11     LegendNANA
14:00 17.5 16.7 95 LegendMM 33 8   100.04     LegendNANA
15:00 17.9 17.2 96 LegendMM 31 4   100.07     LegendNANA
16:00 19.0 18.3 96 LegendMM 20 6   100.04     LegendNANA
17:00 21.3 19.6 90 LegendMM 21 4   100.03 29   LegendNANA
18:00 18.0 17.1 94 LegendMM 32 8   100.04     LegendNANA
19:00 17.6 16.9 96 LegendMM 33 6   100.07     LegendNANA
20:00 17.6 16.9 96 LegendMM 35 1   100.05     LegendNANA
21:00 17.7 17.1 96 LegendMM 14 2   100.11     LegendNANA
22:00 18.0 17.4 96 LegendMM 13 3   100.09     LegendNANA
23:00 17.8 17.2 97 LegendMM 19 2   100.08     LegendNANA

Notes on Data Quality.

Legend

  • E = Estimated
  • M = Missing
  • NA = Not Available*
  • [empty] = Indicates an unobserved value
Date modified: